Starlink 34152

operational
NORAD ID: 64000 Int'l Des: 2025-101 Owner: SPXS Country: US Constellation: starlink
LEOCIRCULAR

About Starlink 34152

Description loading...

Live Position

Loading 3D Globe...

Upcoming Passes

Altitude History

Altitude vs Time

uPlot chart will show altitude changes over time

Two-Line Element Set

1 64000U 25101G 25310.35381201 .00046756 00000-0 16949-2 0 9992
2 64000 42.9993 334.4132 0000231 284.5064 75.5762 15.27637443 28197
Epoch: Nov 6, 2025 • Age: 30 hours

Current Status

Altitude 485.6 km
Velocity 7.63 km/s
Sub-Earth Point 42.16°N, 164.11°E
Launch Date May 14, 2025
Age 0.4 years
Type internet

Technical Details

Classification Payload
Mass 575.00 kg
Dry Mass 530.00 kg
Total Mass 575.00 kg
Length 0.30 m
Diameter 4.10 m
Span 29.00 m
Shape Box + pan
Manufacturer SPXS
Bus Type Starlink V2MO
Phase Status In Orbit
Owner/State SPXS/US

Large Constellations

Loading constellations...